When you browse on this site, cookies collect data to enhance your experience and personalize the content and advertising you see.
Visit our Privacy Policy to learn more. By continuing to use the site, you agree to this use of cookies and data.

Hourly Weather El-Fula

Today, 2 July, Thursday

Time Temperature Precipitation Wind Pressure Humidity
00:00 +33°C° 0 mm 7 mps 711 mmHg 47%
01:00 +32°C° 0 mm 7 mps 710 mmHg 49%
02:00 +30°C° 0 mm 6 mps 710 mmHg 53%
03:00 +30°C° 0 mm 6 mps 710 mmHg 53%
04:00 +30°C° 0 mm 5 mps 710 mmHg 53%
05:00 +29°C° 0 mm 5 mps 710 mmHg 54%
06:00 +29°C° 0.1 mm 5 mps 711 mmHg 56%
07:00 +29°C° 0.1 mm 6 mps 711 mmHg 58%
08:00 +30°C° 0 mm 6 mps 712 mmHg 56%
09:00 +30°C° 0 mm 6 mps 712 mmHg 55%
10:00 +30°C° 0 mm 6 mps 712 mmHg 54%
11:00 +30°C° 0 mm 6 mps 712 mmHg 53%
12:00 +32°C° 0 mm 5 mps 712 mmHg 51%
13:00 +32°C° 0 mm 4 mps 711 mmHg 49%
14:00 +35°C° 0 mm 3 mps 710 mmHg 39%
15:00 +36°C° 0 mm 3 mps 710 mmHg 37%
16:00 +36°C° 0 mm 3 mps 710 mmHg 34%
17:00 +37°C° 0 mm 3 mps 710 mmHg 32%
18:00 +36°C° 0 mm 4 mps 710 mmHg 35%
19:00 +35°C° 0 mm 4 mps 710 mmHg 39%
20:00 +33°C° 0 mm 5 mps 710 mmHg 42%
21:00 +33°C° 0.3 mm 5 mps 710 mmHg 45%
22:00 +33°C° 0.3 mm 5 mps 711 mmHg 48%
23:00 +32°C° 0.3 mm 4 mps 711 mmHg 50%

Tomorrow, 3 July, Friday

Time Temperature Precipitation Wind Pressure Humidity
00:00 +32°C° 0 mm 5 mps 711 mmHg 53%
01:00 +30°C° 0 mm 5 mps 710 mmHg 55%
02:00 +29°C° 0 mm 6 mps 710 mmHg 58%
03:00 +29°C° 0 mm 5 mps 710 mmHg 61%
04:00 +28°C° 0 mm 5 mps 710 mmHg 63%
05:00 +28°C° 0 mm 5 mps 711 mmHg 66%
06:00 +28°C° 0 mm 5 mps 711 mmHg 65%
07:00 +29°C° 0 mm 5 mps 712 mmHg 63%
08:00 +29°C° 0 mm 6 mps 712 mmHg 62%
09:00 +30°C° 0 mm 6 mps 712 mmHg 57%
10:00 +32°C° 0 mm 6 mps 712 mmHg 52%
11:00 +34°C° 0 mm 6 mps 713 mmHg 47%
12:00 +34°C° 0 mm 6 mps 712 mmHg 45%
13:00 +35°C° 0 mm 6 mps 712 mmHg 42%
14:00 +35°C° 0 mm 6 mps 711 mmHg 40%
15:00 +36°C° 0 mm 5 mps 711 mmHg 38%
16:00 +36°C° 0 mm 5 mps 710 mmHg 37%
17:00 +36°C° 0 mm 4 mps 710 mmHg 35%
18:00 +35°C° 0 mm 4 mps 710 mmHg 37%
19:00 +34°C° 0 mm 4 mps 710 mmHg 39%
20:00 +34°C° 0 mm 4 mps 711 mmHg 41%
21:00 +33°C° 0 mm 3 mps 711 mmHg 43%
22:00 +33°C° 0 mm 3 mps 711 mmHg 45%
23:00 +31°C° 0 mm 2 mps 711 mmHg 47%

Day after tomorrow, 4 July, Saturday

Time Temperature Precipitation Wind Pressure Humidity
00:00 +31°C° 0 mm 3 mps 711 mmHg 49%
01:00 +30°C° 0 mm 3 mps 711 mmHg 52%
02:00 +30°C° 0 mm 4 mps 711 mmHg 54%
03:00 +30°C° 0 mm 4 mps 711 mmHg 55%
04:00 +29°C° 0 mm 4 mps 711 mmHg 55%
05:00 +29°C° 0 mm 3 mps 711 mmHg 55%
06:00 +29°C° 0 mm 4 mps 711 mmHg 54%
07:00 +30°C° 0 mm 4 mps 712 mmHg 52%
08:00 +30°C° 0 mm 5 mps 712 mmHg 50%
09:00 +33°C° 0 mm 5 mps 712 mmHg 46%
10:00 +34°C° 0 mm 5 mps 713 mmHg 41%
11:00 +36°C° 0 mm 5 mps 713 mmHg 37%
12:00 +37°C° 0 mm 4 mps 712 mmHg 35%
13:00 +37°C° 0 mm 4 mps 712 mmHg 32%
14:00 +38°C° 0 mm 3 mps 711 mmHg 29%
15:00 +38°C° 0 mm 3 mps 711 mmHg 28%
16:00 +39°C° 0 mm 3 mps 710 mmHg 27%
17:00 +39°C° 0 mm 2 mps 710 mmHg 26%
18:00 +38°C° 0 mm 3 mps 710 mmHg 28%
19:00 +38°C° 0 mm 3 mps 710 mmHg 29%
20:00 +37°C° 0 mm 3 mps 710 mmHg 30%
21:00 +36°C° 0 mm 3 mps 710 mmHg 32%
22:00 +36°C° 0 mm 3 mps 710 mmHg 34%
23:00 +35°C° 0 mm 2 mps 710 mmHg 36%

5 July, Sunday

Time Temperature Precipitation Wind Pressure Humidity
00:00 +35°C° 0 mm 3 mps 710 mmHg 38%
01:00 +34°C° 0 mm 3 mps 710 mmHg 40%
02:00 +34°C° 0 mm 4 mps 710 mmHg 42%
03:00 +33°C° 0 mm 4 mps 710 mmHg 44%
04:00 +32°C° 0 mm 4 mps 710 mmHg 47%
05:00 +32°C° 0 mm 4 mps 710 mmHg 49%
06:00 +32°C° 0 mm 5 mps 710 mmHg 50%
07:00 +32°C° 0 mm 6 mps 711 mmHg 51%
08:00 +33°C° 0 mm 6 mps 711 mmHg 52%
09:00 +34°C° 0 mm 6 mps 711 mmHg 48%
10:00 +35°C° 0 mm 6 mps 711 mmHg 45%
11:00 +36°C° 0 mm 6 mps 711 mmHg 41%
12:00 +38°C° 0 mm 6 mps 711 mmHg 38%
13:00 +39°C° 0 mm 6 mps 710 mmHg 35%
14:00 +40°C° 0 mm 6 mps 710 mmHg 33%
15:00 +40°C° 0 mm 6 mps 709 mmHg 33%
16:00 +39°C° 0 mm 6 mps 708 mmHg 34%
17:00 +39°C° 0 mm 7 mps 707 mmHg 35%
18:00 +38°C° 0.6 mm 6 mps 708 mmHg 38%
19:00 +35°C° 0.6 mm 5 mps 709 mmHg 41%
20:00 +34°C° 0.6 mm 5 mps 709 mmHg 44%
21:00 +30°C° 4.4 mm 6 mps 710 mmHg 56%
22:00 +27°C° 4.4 mm 8 mps 710 mmHg 69%
23:00 +24°C° 4.4 mm 9 mps 710 mmHg 82%

6 July, Monday

Time Temperature Precipitation Wind Pressure Humidity
00:00 +24°C° 6.5 mm 8 mps 710 mmHg 80%
01:00 +24°C° 6.5 mm 8 mps 710 mmHg 78%
02:00 +24°C° 6.5 mm 7 mps 710 mmHg 76%
03:00 +24°C° 0 mm 6 mps 710 mmHg 72%
04:00 +26°C° 0 mm 5 mps 710 mmHg 68%
05:00 +27°C° 0 mm 5 mps 710 mmHg 64%
06:00 +27°C° 0 mm 4 mps 710 mmHg 63%
07:00 +28°C° 0 mm 4 mps 710 mmHg 61%
08:00 +28°C° 0 mm 4 mps 710 mmHg 59%
09:00 +28°C° 0 mm 4 mps 710 mmHg 58%
10:00 +28°C° 0 mm 4 mps 710 mmHg 56%
11:00 +29°C° 0 mm 4 mps 710 mmHg 55%
12:00 +29°C° 0 mm 4 mps 710 mmHg 56%
13:00 +29°C° 0 mm 4 mps 710 mmHg 56%
14:00 +29°C° 0 mm 4 mps 709 mmHg 57%
15:00 +29°C° 0 mm 5 mps 709 mmHg 56%
16:00 +29°C° 0 mm 5 mps 709 mmHg 55%
17:00 +29°C° 0 mm 6 mps 708 mmHg 54%
18:00 +29°C° 0 mm 4 mps 709 mmHg 56%
19:00 +29°C° 0 mm 3 mps 709 mmHg 58%
20:00 +28°C° 0 mm 2 mps 710 mmHg 59%
21:00 +28°C° 0 mm 2 mps 710 mmHg 60%
22:00 +28°C° 0 mm 3 mps 710 mmHg 61%
23:00 +28°C° 0 mm 3 mps 711 mmHg 62%

7 July, Tuesday

Time Temperature Precipitation Wind Pressure Humidity
00:00 +28°C° 0 mm 3 mps 710 mmHg 64%
01:00 +28°C° 0 mm 4 mps 710 mmHg 66%
02:00 +27°C° 0 mm 4 mps 710 mmHg 68%
03:00 +27°C° 0 mm 5 mps 710 mmHg 70%
04:00 +27°C° 0 mm 5 mps 710 mmHg 71%
05:00 +27°C° 0 mm 6 mps 710 mmHg 72%
06:00 +27°C° 0 mm 6 mps 711 mmHg 72%
07:00 +27°C° 0 mm 6 mps 711 mmHg 71%
08:00 +27°C° 0 mm 7 mps 711 mmHg 71%
09:00 +28°C° 0 mm 7 mps 712 mmHg 67%
10:00 +29°C° 0 mm 7 mps 712 mmHg 63%
11:00 +30°C° 0 mm 7 mps 712 mmHg 59%
12:00 +30°C° 0 mm 7 mps 712 mmHg 56%
13:00 +32°C° 0 mm 6 mps 711 mmHg 53%
14:00 +32°C° 0 mm 6 mps 711 mmHg 50%
15:00 +32°C° 0 mm 5 mps 711 mmHg 49%
16:00 +32°C° 0 mm 4 mps 710 mmHg 49%
17:00 +31°C° 0 mm 3 mps 710 mmHg 48%
18:00 +31°C° 0 mm 3 mps 710 mmHg 51%
19:00 +30°C° 0 mm 4 mps 711 mmHg 54%
20:00 +30°C° 0 mm 4 mps 711 mmHg 56%
21:00 +29°C° 0 mm 4 mps 711 mmHg 60%
22:00 +29°C° 0 mm 5 mps 711 mmHg 63%
23:00 +28°C° 0 mm 6 mps 711 mmHg 67%
Show more